Regional Weather Roundup
Issued by NWS Goodland, KS

Home | Current Version | Previous Version | Graphics & Text | Print | Product List | Glossary On
Versions: 1 2 3 4 5 6 7 8 9 10 11 12 13 14 15 16 17 18 19 20 21 22 23 24 25 26 27 28 29 30 31 32 33 34 35 36 37 38 39 40 41 42 43 44 45 46 47 48 49 50
000
ASUS43 KGLD 190108
RWRGLD

GOODLAND FORECAST AREA HOURLY WEATHER ROUNDUP
NATIONAL WEATHER SERVICE GOODLAND KS
700 PM MDT THU SEP 18 2014

...OFFICIAL OBSERVATIONS...

CITY           SKY/WX    TMP DP  RH WIND       PRES   REMARKS
GOODLAND KS    CLEAR     74  61  63 E10       29.91S
HILL CITY KS   CLEAR     73  67  81 NE5       29.87S
IMPERIAL NEB   CLEAR     67  61  81 E7        29.90S
MCCOOK NEB     CLEAR     66  61  84 E6        29.89F
AKRON CO       CLEAR     77  56  48 E9        29.93S
BURLINGTON CO  CLEAR     80  45  28 S13       29.94R
LIMON CO       CLEAR     75  33  21 S8        29.99S
$$

...UNOFFICIAL OBSERVATIONS...

CITY           SKY/WX    TMP DP  RH WIND       PRES   REMARKS
COLBY KS       CLEAR     73  66  78 E8        29.91S
GOVE KS          N/A     80  32  17 MISG        N/A
NORTON KS      CLEAR     68  61  77 N3        29.87F
SHARON SPRINGS   N/A     80  54  40 S10         N/A
WAKEENEY KS      N/A     79  60  51 MISG        N/A
TRENTON NEB      N/A     66  32  28 E7          N/A
YUMA CO          N/A     75  58  54 E6          N/A
$$


USA.gov is the U.S. government's official web portal to all federal, state and local government web resources and services.